| time (UTC) | temp F | wind direction | speed MPH | gust MPH | rain 1hr in | rain 24hr in | rain mn in | humidity % | barometer mb |
| 20260905034805 | 83 | 354 | 0.0 | 0.0 | 0.00 | 0.00 | 0.00 | 46 | 1010.2 |
| 20260905034303 | 83 | 354 | 0.0 | 0.0 | 0.00 | 0.00 | 0.00 | 44 | 1010.1 |
| 20260905033803 | 83 | 353 | 0.0 | 0.0 | 0.00 | 0.00 | 0.00 | 45 | 1010.0 |
| 20260905033303 | 83 | 353 | 0.0 | 0.0 | 0.00 | 0.00 | 0.00 | 44 | 1009.9 |
| 20260905033021 | 83 | 353 | 0.0 | 0.0 | 0.00 | 0.00 | 0.00 | 45 | 1009.9 |
| 20260905032530 | 83 | 10 | 0.0 | 1.0 | 0.00 | 0.00 | 0.00 | 45 | 1009.8 |
| 20260905031802 | 83 | 10 | 0.0 | 1.0 | 0.00 | 0.00 | 0.00 | 43 | 1009.7 |
| 20260905031302 | 84 | 336 | 0.0 | 0.0 | 0.00 | 0.00 | 0.00 | 45 | 1009.7 |
| 20260905030802 | 84 | 336 | 0.0 | 0.0 | 0.00 | 0.00 | 0.00 | 43 | 1009.7 |
| 20260905030518 | 85 | 336 | 0.0 | 0.0 | 0.00 | 0.00 | 0.00 | 43 | 1009.6 |
| 20260905025801 | 85 | 336 | 0.0 | 0.0 | 0.00 | 0.00 | 0.00 | 41 | 1009.5 |
| 20260905025301 | 85 | 336 | 0.0 | 0.0 | 0.00 | 0.00 | 0.00 | 40 | 1009.5 |
| 20260905024802 | 86 | 336 | 0.0 | 0.0 | 0.00 | 0.00 | 0.00 | 39 | 1009.2 |
| 20260905024301 | 86 | 336 | 0.0 | 0.0 | 0.00 | 0.00 | 0.00 | 39 | 1009.2 |
| 20260905023802 | 86 | 336 | 0.0 | 0.0 | 0.00 | 0.00 | 0.00 | 39 | 1009.1 |
| 20260905023746 | 86 | 336 | 0.0 | 0.0 | 0.00 | 0.00 | 0.00 | 39 | 1009.0 |
| 20260905023023 | 87 | 336 | 0.0 | 0.0 | 0.00 | 0.00 | 0.00 | 37 | 1008.9 |
| 20260905022300 | 87 | 336 | 0.0 | 2.0 | 0.00 | 0.00 | 0.00 | 36 | 1008.9 |
| 20260905021801 | 87 | 324 | 0.0 | 2.0 | 0.00 | 0.00 | 0.00 | 36 | 1008.9 |
| 20260905021300 | 88 | 305 | 0.0 | 1.0 | 0.00 | 0.00 | 0.00 | 35 | 1008.9 |
| 20260905020801 | 88 | 305 | 0.0 | 1.0 | 0.00 | 0.00 | 0.00 | 34 | 1008.9 |
| 20260905020300 | 89 | 305 | 0.0 | 4.0 | 0.00 | 0.00 | 0.00 | 33 | 1008.8 |
| 20260905015801 | 89 | 300 | 0.0 | 4.0 | 0.00 | 0.00 | 0.00 | 33 | 1008.7 |
| 20260905015525 | 89 | 317 | 0.0 | 4.0 | 0.00 | 0.00 | 0.00 | 33 | 1008.7 |
| 20260905014759 | 89 | 266 | 0.0 | 4.0 | 0.00 | 0.00 | 0.00 | 33 | 1008.6 |
| 20260905014300 | 89 | 290 | 0.0 | 5.0 | 0.00 | 0.00 | 0.00 | 33 | 1008.5 |
| 20260905013800 | 89 | 303 | 0.0 | 5.0 | 0.00 | 0.00 | 0.00 | 33 | 1008.6 |
| 20260905013302 | 90 | 292 | 0.0 | 3.0 | 0.00 | 0.00 | 0.00 | 32 | 1008.6 |
| 20260905012800 | 90 | 295 | 0.0 | 3.0 | 0.00 | 0.00 | 0.00 | 32 | 1008.6 |
| 20260905012300 | 90 | 305 | 0.0 | 5.0 | 0.00 | 0.00 | 0.00 | 33 | 1008.6 |
| 20260905012021 | 91 | 309 | 1.0 | 6.0 | 0.00 | 0.00 | 0.00 | 31 | 1008.7 |
| 20260905011259 | 91 | 295 | 2.0 | 7.0 | 0.00 | 0.00 | 0.00 | 31 | 1008.5 |
| 20260905010758 | 91 | 288 | 4.0 | 10.0 | 0.00 | 0.00 | 0.00 | 32 | 1008.5 |
| 20260905010259 | 92 | 302 | 4.0 | 10.0 | 0.00 | 0.00 | 0.00 | 32 | 1008.5 |
| 20260905005759 | 92 | 254 | 2.0 | 7.0 | 0.00 | 0.00 | 0.00 | 32 | 1008.5 |
| 20260905005259 | 92 | 309 | 4.0 | 9.0 | 0.00 | 0.00 | 0.00 | 32 | 1008.5 |
| 20260905004759 | 92 | 283 | 5.0 | 11.0 | 0.00 | 0.00 | 0.00 | 32 | 1008.4 |
| 20260905004522 | 92 | 298 | 4.0 | 11.0 | 0.00 | 0.00 | 0.00 | 32 | 1008.5 |
| 20260905003758 | 92 | 271 | 4.0 | 11.0 | 0.00 | 0.00 | 0.00 | 32 | 1008.5 |
| 20260905003259 | 92 | 276 | 4.0 | 11.0 | 0.00 | 0.00 | 0.00 | 32 | 1008.4 |
| 20260905002758 | 92 | 286 | 2.0 | 11.0 | 0.00 | 0.00 | 0.00 | 32 | 1008.3 |
| 20260905002258 | 92 | 282 | 2.0 | 14.0 | 0.00 | 0.00 | 0.00 | 32 | 1008.2 |
| 20260905002017 | 92 | 254 | 4.0 | 14.0 | 0.00 | 0.00 | 0.00 | 32 | 1008.2 |
| 20260905001258 | 92 | 324 | 7.0 | 13.0 | 0.00 | 0.00 | 0.00 | 32 | 1008.1 |
| 20260905000758 | 92 | 268 | 5.0 | 11.0 | 0.00 | 0.00 | 0.00 | 33 | 1008.1 |
| 20260905000257 | 93 | 286 | 5.0 | 10.0 | 0.00 | 0.00 | 0.00 | 34 | 1008.1 |
| 20260904235758 | 93 | 247 | 4.0 | 10.0 | 0.00 | 0.00 | 0.00 | 33 | 1008.1 |
| 20260904235521 | 93 | 272 | 3.0 | 14.0 | 0.00 | 0.00 | 0.00 | 31 | 1008.1 |
| 20260904234753 | 93 | 334 | 7.0 | 14.0 | 0.00 | 0.00 | 0.00 | 30 | 1008.1 |
| 20260904234518 | 93 | 285 | 3.0 | 12.0 | 0.00 | 0.00 | 0.00 | 31 | 1008.1 |
| 20260904233757 | 93 | 275 | 4.0 | 15.0 | 0.00 | 0.00 | 0.00 | 30 | 1008.1 |
| 20260904233257 | 93 | 285 | 8.0 | 15.0 | 0.00 | 0.00 | 0.00 | 29 | 1008.2 |
| 20260904232757 | 94 | 192 | 5.0 | 14.0 | 0.00 | 0.00 | 0.00 | 29 | 1008.2 |
| 20260904232257 | 94 | 243 | 5.0 | 14.0 | 0.00 | 0.00 | 0.00 | 28 | 1008.2 |
| 20260904231756 | 94 | 265 | 6.0 | 12.0 | 0.00 | 0.00 | 0.00 | 28 | 1008.2 |
| 20260904231514 | 94 | 231 | 3.0 | 11.0 | 0.00 | 0.00 | 0.00 | 28 | 1008.2 |
| 20260904230756 | 94 | 265 | 6.0 | 13.0 | 0.00 | 0.00 | 0.00 | 28 | 1008.2 |
| 20260904230253 | 94 | 300 | 6.0 | 13.0 | 0.00 | 0.00 | 0.00 | 27 | 1008.3 |
| 20260904225756 | 94 | 250 | 4.0 | 13.0 | 0.00 | 0.00 | 0.00 | 30 | 1008.2 |
| 20260904225256 | 94 | 234 | 6.0 | 12.0 | 0.00 | 0.00 | 0.00 | 29 | 1008.2 |
| 20260904224755 | 94 | 293 | 3.0 | 13.0 | 0.00 | 0.00 | 0.00 | 30 | 1008.2 |
| 20260904224256 | 94 | 312 | 6.0 | 14.0 | 0.00 | 0.00 | 0.00 | 30 | 1008.3 |
| 20260904223756 | 94 | 293 | 8.0 | 15.0 | 0.00 | 0.00 | 0.00 | 29 | 1008.4 |
| 20260904223255 | 94 | 314 | 6.0 | 15.0 | 0.00 | 0.00 | 0.00 | 31 | 1008.4 |
| 20260904222756 | 94 | 285 | 5.0 | 12.0 | 0.00 | 0.00 | 0.00 | 32 | 1008.5 |
| 20260904222256 | 94 | 281 | 6.0 | 12.0 | 0.00 | 0.00 | 0.00 | 32 | 1008.4 |
| 20260904221754 | 94 | 281 | 4.0 | 14.0 | 0.00 | 0.00 | 0.00 | 34 | 1008.5 |
| 20260904221255 | 94 | 268 | 5.0 | 14.0 | 0.00 | 0.00 | 0.00 | 32 | 1008.5 |
| 20260904220755 | 94 | 6 | 6.0 | 14.0 | 0.00 | 0.00 | 0.00 | 33 | 1008.5 |
| 20260904220255 | 94 | 274 | 7.0 | 12.0 | 0.00 | 0.00 | 0.00 | 33 | 1008.6 |
| 20260904220019 | 94 | 209 | 4.0 | 10.0 | 0.00 | 0.00 | 0.00 | 35 | 1008.6 |
| 20260904215254 | 94 | 245 | 3.0 | 11.0 | 0.00 | 0.00 | 0.00 | 34 | 1008.6 |
| 20260904214755 | 93 | 279 | 4.0 | 11.0 | 0.00 | 0.00 | 0.00 | 34 | 1008.7 |
| 20260904214255 | 93 | 274 | 5.0 | 13.0 | 0.00 | 0.00 | 0.00 | 34 | 1008.9 |
| 20260904214231 | 94 | 241 | 2.0 | 13.0 | 0.00 | 0.00 | 0.00 | 33 | 1008.8 |
| 20260904213253 | 95 | 259 | 3.0 | 15.0 | 0.00 | 0.00 | 0.00 | 32 | 1008.8 |
| 20260904212754 | 95 | 265 | 5.0 | 15.0 | 0.00 | 0.00 | 0.00 | 33 | 1008.9 |
| 20260904212522 | 96 | 282 | 6.0 | 12.0 | 0.00 | 0.00 | 0.00 | 33 | 1009.0 |
| 20260904212016 | 96 | 151 | 4.0 | 11.0 | 0.00 | 0.00 | 0.00 | 31 | 1009.0 |
| 20260904211253 | 95 | 216 | 3.0 | 11.0 | 0.00 | 0.00 | 0.00 | 31 | 1009.2 |
| 20260904210754 | 94 | 235 | 4.0 | 11.0 | 0.00 | 0.00 | 0.00 | 32 | 1009.2 |
| 20260904210519 | 94 | 231 | 4.0 | 11.0 | 0.00 | 0.00 | 0.00 | 32 | 1009.2 |
| 20260904210018 | 95 | 235 | 3.0 | 11.0 | 0.00 | 0.00 | 0.00 | 32 | 1009.4 |
| 20260904205516 | 95 | 305 | 3.0 | 11.0 | 0.00 | 0.00 | 0.00 | 32 | 1009.4 |
| 20260904204753 | 95 | 285 | 3.0 | 11.0 | 0.00 | 0.00 | 0.00 | 30 | 1009.5 |
| 20260904204253 | 95 | 269 | 1.0 | 6.0 | 0.00 | 0.00 | 0.00 | 32 | 1009.5 |
| 20260904203753 | 95 | 292 | 0.0 | 6.0 | 0.00 | 0.00 | 0.00 | 32 | 1009.7 |
| 20260904203253 | 96 | 264 | 2.0 | 6.0 | 0.00 | 0.00 | 0.00 | 32 | 1009.7 |
| 20260904202753 | 95 | 190 | 1.0 | 7.0 | 0.00 | 0.00 | 0.00 | 33 | 1009.8 |
| 20260904202253 | 94 | 223 | 1.0 | 10.0 | 0.00 | 0.00 | 0.00 | 34 | 1009.9 |
| 20260904201752 | 93 | 207 | 3.0 | 10.0 | 0.00 | 0.00 | 0.00 | 36 | 1010.0 |
| 20260904201249 | 94 | 157 | 1.0 | 9.0 | 0.00 | 0.00 | 0.00 | 35 | 1010.0 |
| 20260904200751 | 93 | 247 | 2.0 | 9.0 | 0.00 | 0.00 | 0.00 | 38 | 1010.1 |
| 20260904200252 | 92 | 276 | 3.0 | 6.0 | 0.00 | 0.00 | 0.00 | 40 | 1010.2 |
| 20260904200009 | 92 | 233 | 2.0 | 6.0 | 0.00 | 0.00 | 0.00 | 39 | 1010.2 |
| 20260904195252 | 93 | 338 | 1.0 | 6.0 | 0.00 | 0.00 | 0.00 | 38 | 1010.2 |
| 20260904195011 | 94 | 299 | 2.0 | 9.0 | 0.00 | 0.00 | 0.00 | 37 | 1010.4 |
| 20260904194252 | 94 | 244 | 4.0 | 9.0 | 0.00 | 0.00 | 0.00 | 39 | 1010.4 |
| 20260904193751 | 93 | 237 | 0.0 | 7.0 | 0.00 | 0.00 | 0.00 | 39 | 1010.4 |
| 20260904193251 | 93 | 145 | 2.0 | 6.0 | 0.00 | 0.00 | 0.00 | 40 | 1010.5 |
| 20260904192748 | 93 | 228 | 0.0 | 5.0 | 0.00 | 0.00 | 0.00 | 40 | 1010.7 |
| 20260904192251 | 93 | 243 | 1.0 | 7.0 | 0.00 | 0.00 | 0.00 | 42 | 1010.8 |
| 20260904191750 | 92 | 251 | 4.0 | 7.0 | 0.00 | 0.00 | 0.00 | 42 | 1010.9 |
| 20260904191251 | 92 | 244 | 0.0 | 5.0 | 0.00 | 0.00 | 0.00 | 42 | 1010.9 |
| 20260904190751 | 91 | 175 | 2.0 | 7.0 | 0.00 | 0.00 | 0.00 | 44 | 1011.0 |
| 20260904190250 | 91 | 314 | 3.0 | 7.0 | 0.00 | 0.00 | 0.00 | 44 | 1011.0 |
| 20260904190017 | 90 | 327 | 2.0 | 10.0 | 0.00 | 0.00 | 0.00 | 42 | 1011.0 |
| 20260904185512 | 90 | 204 | 4.0 | 10.0 | 0.00 | 0.00 | 0.00 | 43 | 1011.2 |
| 20260904184751 | 90 | 299 | 0.0 | 7.0 | 0.00 | 0.00 | 0.00 | 45 | 1011.1 |
| 20260904184249 | 90 | 55 | 2.0 | 5.0 | 0.00 | 0.00 | 0.00 | 45 | 1011.2 |
| 20260904183750 | 89 | 230 | 0.0 | 7.0 | 0.00 | 0.00 | 0.00 | 47 | 1011.2 |
| 20260904183250 | 88 | 38 | 1.0 | 7.0 | 0.00 | 0.00 | 0.00 | 47 | 1011.4 |
| 20260904183012 | 89 | 289 | 2.0 | 7.0 | 0.00 | 0.00 | 0.00 | 49 | 1011.5 |
| 20260904182250 | 88 | 262 | 2.0 | 7.0 | 0.00 | 0.00 | 0.00 | 49 | 1011.5 |
| 20260904181750 | 88 | 309 | 3.0 | 7.0 | 0.00 | 0.00 | 0.00 | 50 | 1011.6 |
| 20260904181250 | 88 | 319 | 0.0 | 6.0 | 0.00 | 0.00 | 0.00 | 48 | 1011.6 |
| 20260904180750 | 87 | 18 | 3.0 | 7.0 | 0.00 | 0.00 | 0.00 | 49 | 1011.6 |
| 20260904180245 | 88 | 312 | 3.0 | 7.0 | 0.00 | 0.00 | 0.00 | 49 | 1011.7 |
| 20260904180235 | 89 | 285 | 4.0 | 7.0 | 0.00 | 0.00 | 0.00 | 50 | 1011.7 |
| 20260904175510 | 89 | 214 | 1.0 | 5.0 | 0.00 | 0.00 | 0.00 | 52 | 1012.0 |
| 20260904174749 | 87 | 166 | 1.0 | 6.0 | 0.00 | 0.00 | 0.00 | 51 | 1012.0 |
| 20260904174508 | 86 | 227 | 0.0 | 7.0 | 0.00 | 0.00 | 0.00 | 53 | 1012.0 |
| 20260904173749 | 86 | 219 | 4.0 | 7.0 | 0.00 | 0.00 | 0.00 | 54 | 1012.2 |
| 20260904173248 | 85 | 282 | 2.0 | 5.0 | 0.00 | 0.00 | 0.00 | 56 | 1012.2 |
| 20260904172749 | 85 | 274 | 1.0 | 6.0 | 0.00 | 0.00 | 0.00 | 56 | 1012.2 |
| 20260904172248 | 85 | 331 | 1.0 | 6.0 | 0.00 | 0.00 | 0.00 | 57 | 1012.3 |
| 20260904171749 | 85 | 331 | 1.0 | 6.0 | 0.00 | 0.00 | 0.00 | 55 | 1012.3 |
| 20260904171248 | 85 | 281 | 1.0 | 6.0 | 0.00 | 0.00 | 0.00 | 55 | 1012.4 |
| 20260904170748 | 84 | 216 | 2.0 | 6.0 | 0.00 | 0.00 | 0.00 | 57 | 1012.5 |
| 20260904170249 | 84 | 212 | 0.0 | 6.0 | 0.00 | 0.00 | 0.00 | 57 | 1012.4 |
| 20260904165748 | 85 | 233 | 0.0 | 6.0 | 0.00 | 0.00 | 0.00 | 56 | 1012.4 |
| 20260904165248 | 85 | 190 | 2.0 | 5.0 | 0.00 | 0.00 | 0.00 | 56 | 1012.4 |
| 20260904164747 | 85 | 220 | 0.0 | 5.0 | 0.00 | 0.00 | 0.00 | 55 | 1012.3 |
| 20260904164248 | 85 | 212 | 0.0 | 5.0 | 0.00 | 0.00 | 0.00 | 56 | 1012.2 |
| 20260904163744 | 85 | 228 | 3.0 | 6.0 | 0.00 | 0.00 | 0.00 | 56 | 1012.3 |
| 20260904163246 | 85 | 202 | 3.0 | 6.0 | 0.00 | 0.00 | 0.00 | 57 | 1012.2 |
| 20260904162747 | 85 | 234 | 0.0 | 5.0 | 0.00 | 0.00 | 0.00 | 57 | 1012.2 |
| 20260904162247 | 85 | 235 | 1.0 | 4.0 | 0.00 | 0.00 | 0.00 | 58 | 1012.2 |
| 20260904161747 | 84 | 212 | 0.0 | 5.0 | 0.00 | 0.00 | 0.00 | 57 | 1012.1 |
| 20260904161248 | 85 | 292 | 2.0 | 5.0 | 0.00 | 0.00 | 0.00 | 58 | 1012.2 |
| 20260904160747 | 85 | 279 | 3.0 | 5.0 | 0.00 | 0.00 | 0.00 | 58 | 1012.1 |
| 20260904160246 | 84 | 238 | 3.0 | 5.0 | 0.00 | 0.00 | 0.00 | 58 | 1012.1 |
| 20260904160006 | 85 | 251 | 2.0 | 4.0 | 0.00 | 0.00 | 0.00 | 58 | 1012.1 |
| 20260904155245 | 84 | 248 | 1.0 | 5.0 | 0.00 | 0.00 | 0.00 | 59 | 1012.2 |
| 20260904154747 | 85 | 195 | 1.0 | 5.0 | 0.00 | 0.00 | 0.00 | 58 | 1012.2 |
| 20260904154247 | 84 | 238 | 2.0 | 5.0 | 0.00 | 0.00 | 0.00 | 58 | 1012.2 |
| 20260904153747 | 85 | 265 | 0.0 | 4.0 | 0.00 | 0.00 | 0.00 | 58 | 1012.2 |
| 20260904153246 | 84 | 173 | 0.0 | 0.0 | 0.00 | 0.00 | 0.00 | 59 | 1012.2 |
| 20260904152746 | 83 | 312 | 0.0 | 2.0 | 0.00 | 0.00 | 0.00 | 60 | 1012.1 |
| 20260904152246 | 83 | 155 | 0.0 | 2.0 | 0.00 | 0.00 | 0.00 | 59 | 1012.2 |
| 20260904151745 | 83 | 227 | 0.0 | 0.0 | 0.00 | 0.00 | 0.00 | 61 | 1012.2 |
| 20260904151246 | 81 | 276 | 0.0 | 1.0 | 0.00 | 0.00 | 0.00 | 65 | 1012.2 |
| 20260904151004 | 80 | 303 | 0.0 | 1.0 | 0.00 | 0.00 | 0.00 | 66 | 1012.1 |
| 20260904150245 | 79 | 286 | 0.0 | 0.0 | 0.00 | 0.00 | 0.00 | 68 | 1012.1 |
| 20260904145745 | 79 | 286 | 0.0 | 0.0 | 0.00 | 0.00 | 0.00 | 69 | 1012.0 |
| 20260904145245 | 78 | 286 | 0.0 | 0.0 | 0.00 | 0.00 | 0.00 | 69 | 1012.1 |
| 20260904144745 | 78 | 286 | 0.0 | 1.0 | 0.00 | 0.00 | 0.00 | 69 | 1012.0 |
| 20260904144245 | 78 | 286 | 0.0 | 1.0 | 0.00 | 0.00 | 0.00 | 70 | 1012.0 |
| 20260904143745 | 78 | 286 | 0.0 | 0.0 | 0.00 | 0.00 | 0.00 | 70 | 1011.8 |
| 20260904143240 | 78 | 286 | 0.0 | 0.0 | 0.00 | 0.00 | 0.00 | 70 | 1012.0 |
| 20260904143004 | 78 | 286 | 0.0 | 0.0 | 0.00 | 0.00 | 0.00 | 71 | 1011.8 |
| 20260904142445 | 78 | 285 | 0.0 | 0.0 | 0.00 | 0.00 | 0.00 | 71 | 1011.8 |
| 20260904142327 | 78 | 286 | 0.0 | 0.0 | 0.00 | 0.00 | 0.00 | 70 | 1011.8 |
| 20260904141833 | 78 | 286 | 0.0 | 0.0 | 0.00 | 0.00 | 0.00 | 71 | 1011.8 |
| 20260904140744 | 77 | 272 | 0.0 | 0.0 | 0.00 | 0.00 | 0.00 | 73 | 1011.7 |
| 20260904140244 | 76 | 272 | 0.0 | 0.0 | 0.00 | 0.00 | 0.00 | 73 | 1011.6 |
| 20260904135744 | 76 | 272 | 0.0 | 0.0 | 0.00 | 0.00 | 0.00 | 75 | 1011.6 |
| 20260904135244 | 76 | 272 | 0.0 | 0.0 | 0.00 | 0.00 | 0.00 | 75 | 1011.4 |
| 20260904134740 | 76 | 272 | 0.0 | 0.0 | 0.00 | 0.00 | 0.00 | 76 | 1011.4 |
| 20260904134250 | 75 | 272 | 0.0 | 0.0 | 0.00 | 0.00 | 0.00 | 77 | 1011.3 |
| 20260904133743 | 75 | 272 | 0.0 | 0.0 | 0.00 | 0.00 | 0.00 | 77 | 1011.3 |
| 20260904133729 | 75 | 272 | 0.0 | 0.0 | 0.00 | 0.00 | 0.00 | 77 | 1011.2 |
| 20260904132745 | 75 | 271 | 0.0 | 0.0 | 0.00 | 0.00 | 0.00 | 77 | 1011.1 |
| 20260904132246 | 75 | 271 | 0.0 | 0.0 | 0.00 | 0.00 | 0.00 | 76 | 1011.0 |
| 20260904131743 | 75 | 271 | 0.0 | 0.0 | 0.00 | 0.00 | 0.00 | 76 | 1010.9 |
| 20260904131243 | 75 | 271 | 0.0 | 1.0 | 0.00 | 0.00 | 0.00 | 75 | 1010.9 |
| 20260904130739 | 75 | 271 | 0.0 | 1.0 | 0.00 | 0.00 | 0.00 | 75 | 1010.7 |
| 20260904130238 | 76 | 303 | 0.0 | 0.0 | 0.00 | 0.00 | 0.00 | 74 | 1010.7 |
| 20260904125742 | 76 | 306 | 0.0 | 0.0 | 0.00 | 0.00 | 0.00 | 73 | 1010.5 |
| 20260904125242 | 76 | 306 | 0.0 | 0.0 | 0.00 | 0.00 | 0.00 | 73 | 1010.4 |
| 20260904124742 | 76 | 306 | 0.0 | 0.0 | 0.00 | 0.00 | 0.00 | 73 | 1010.3 |
| 20260904124242 | 76 | 306 | 0.0 | 0.0 | 0.00 | 0.00 | 0.00 | 73 | 1010.2 |
| 20260904123742 | 76 | 306 | 0.0 | 0.0 | 0.00 | 0.00 | 0.00 | 72 | 1010.2 |
| 20260904123241 | 76 | 306 | 0.0 | 0.0 | 0.00 | 0.00 | 0.00 | 72 | 1010.2 |
| 20260904122742 | 76 | 306 | 0.0 | 0.0 | 0.00 | 0.00 | 0.00 | 71 | 1010.0 |
| 20260904122238 | 76 | 306 | 0.0 | 0.0 | 0.00 | 0.00 | 0.00 | 72 | 1009.9 |
| 20260904121738 | 76 | 306 | 0.0 | 0.0 | 0.00 | 0.00 | 0.00 | 72 | 1009.9 |
| 20260904121243 | 77 | 306 | 0.0 | 0.0 | 0.00 | 0.00 | 0.00 | 71 | 1010.0 |
| 20260904120741 | 77 | 306 | 0.0 | 0.0 | 0.00 | 0.00 | 0.00 | 71 | 1010.0 |
| 20260904120240 | 77 | 306 | 0.0 | 0.0 | 0.00 | 0.00 | 0.00 | 70 | 1010.0 |
| 20260904115741 | 77 | 306 | 0.0 | 1.0 | 0.00 | 0.00 | 0.00 | 70 | 1010.0 |
| 20260904115241 | 77 | 299 | 0.0 | 1.0 | 0.00 | 0.00 | 0.00 | 70 | 1009.9 |
| 20260904114740 | 77 | 299 | 0.0 | 0.0 | 0.00 | 0.00 | 0.00 | 70 | 1010.0 |
| 20260904114503 | 77 | 299 | 0.0 | 0.0 | 0.00 | 0.00 | 0.00 | 70 | 1010.0 |
| 20260904113741 | 77 | 299 | 0.0 | 1.0 | 0.00 | 0.00 | 0.00 | 70 | 1010.0 |
| 20260904113236 | 77 | 299 | 0.0 | 1.0 | 0.00 | 0.00 | 0.00 | 69 | 1010.0 |
| 20260904113007 | 77 | 299 | 0.0 | 1.0 | 0.00 | 0.00 | 0.00 | 70 | 1009.9 |
| 20260904112722 | 78 | 299 | 0.0 | 0.0 | 0.00 | 0.00 | 0.00 | 69 | 1009.9 |
| 20260904111740 | 78 | 344 | 0.0 | 0.0 | 0.00 | 0.00 | 0.00 | 69 | 1009.9 |
| 20260904111240 | 78 | 344 | 0.0 | 0.0 | 0.00 | 0.00 | 0.00 | 69 | 1010.1 |
| 20260904110741 | 78 | 8 | 0.0 | 0.0 | 0.00 | 0.00 | 0.00 | 69 | 1010.0 |
| 20260904110724 | 78 | 11 | 0.0 | 0.0 | 0.00 | 0.00 | 0.00 | 70 | 1010.0 |
| 20260904105737 | 78 | 330 | 0.0 | 0.0 | 0.00 | 0.00 | 0.00 | 69 | 1010.0 |
| 20260904105237 | 78 | 330 | 0.0 | 0.0 | 0.00 | 0.00 | 0.00 | 69 | 1010.0 |
| 20260904104737 | 78 | 330 | 0.0 | 0.0 | 0.00 | 0.00 | 0.00 | 68 | 1010.0 |
| 20260904104239 | 78 | 330 | 0.0 | 0.0 | 0.00 | 0.00 | 0.00 | 69 | 1009.9 |
| 20260904103739 | 78 | 330 | 0.0 | 2.0 | 0.00 | 0.00 | 0.00 | 69 | 1009.9 |
| 20260904103239 | 78 | 330 | 0.0 | 2.0 | 0.00 | 0.00 | 0.00 | 69 | 1010.0 |
| 20260904102739 | 78 | 330 | 0.0 | 1.0 | 0.00 | 0.00 | 0.00 | 68 | 1010.0 |
| 20260904102239 | 78 | 330 | 0.0 | 2.0 | 0.00 | 0.00 | 0.00 | 68 | 1010.0 |
| 20260904101738 | 78 | 24 | 0.0 | 2.0 | 0.00 | 0.00 | 0.00 | 70 | 1010.0 |
| 20260904101239 | 78 | 296 | 0.0 | 0.0 | 0.00 | 0.00 | 0.00 | 70 | 1009.9 |
| 20260904100738 | 78 | 296 | 0.0 | 0.0 | 0.00 | 0.00 | 0.00 | 70 | 1010.0 |
| 20260904100238 | 78 | 296 | 0.0 | 0.0 | 0.00 | 0.00 | 0.00 | 69 | 1010.0 |
| 20260904100224 | 78 | 296 | 0.0 | 0.0 | 0.00 | 0.00 | 0.00 | 67 | 1010.0 |
| 20260904095238 | 78 | 296 | 0.0 | 0.0 | 0.00 | 0.00 | 0.00 | 68 | 1009.9 |
| 20260904094738 | 78 | 296 | 0.0 | 0.0 | 0.00 | 0.00 | 0.00 | 67 | 1010.0 |
| 20260904094238 | 78 | 302 | 0.0 | 0.0 | 0.00 | 0.00 | 0.00 | 70 | 1009.9 |
| 20260904093739 | 77 | 254 | 0.0 | 0.0 | 0.00 | 0.00 | 0.00 | 70 | 1009.9 |
| 20260904093238 | 78 | 202 | 0.0 | 0.0 | 0.00 | 0.00 | 0.00 | 70 | 1009.9 |
| 20260904092734 | 78 | 202 | 0.0 | 0.0 | 0.00 | 0.00 | 0.00 | 69 | 1009.9 |
| 20260904092234 | 77 | 202 | 0.0 | 0.0 | 0.00 | 0.00 | 0.00 | 69 | 1010.0 |
| 20260904091738 | 77 | 285 | 0.0 | 0.0 | 0.00 | 0.00 | 0.00 | 71 | 1010.0 |
| 20260904091237 | 76 | 344 | 0.0 | 0.0 | 0.00 | 0.00 | 0.00 | 73 | 1009.9 |
| 20260904090737 | 76 | 345 | 0.0 | 1.0 | 0.00 | 0.00 | 0.00 | 73 | 1010.0 |
| 20260904090237 | 76 | 344 | 0.0 | 1.0 | 0.00 | 0.00 | 0.00 | 73 | 1009.9 |
| 20260904090000 | 76 | 310 | 0.0 | 0.0 | 0.00 | 0.00 | 0.00 | 73 | 1010.0 |
| 20260904085239 | 76 | 310 | 0.0 | 0.0 | 0.00 | 0.00 | 0.00 | 72 | 1009.9 |
| 20260904085005 | 77 | 358 | 0.0 | 0.0 | 0.00 | 0.00 | 0.00 | 72 | 1009.9 |
| 20260904084237 | 77 | 0 | 0.0 | 0.0 | 0.00 | 0.00 | 0.00 | 72 | 1009.9 |
| 20260904083736 | 77 | 0 | 0.0 | 0.0 | 0.00 | 0.00 | 0.00 | 71 | 1009.9 |
| 20260904083237 | 78 | 0 | 0.0 | 1.0 | 0.00 | 0.00 | 0.00 | 70 | 1009.9 |
| 20260904082736 | 78 | 0 | 0.0 | 1.0 | 0.00 | 0.00 | 0.00 | 69 | 1009.9 |
| 20260904082444 | 77 | 351 | 0.0 | 0.0 | 0.00 | 0.00 | 0.00 | 70 | 1010.0 |
| 20260904082323 | 78 | 55 | 0.0 | 0.0 | 0.00 | 0.00 | 0.00 | 69 | 1010.0 |
| 20260904081236 | 77 | 350 | 0.0 | 0.0 | 0.00 | 0.00 | 0.00 | 69 | 1010.1 |
| 20260904080957 | 78 | 350 | 0.0 | 0.0 | 0.00 | 0.00 | 0.00 | 70 | 1010.1 |
| 20260904080236 | 78 | 350 | 0.0 | 0.0 | 0.00 | 0.00 | 0.00 | 68 | 1010.1 |
| 20260904075733 | 79 | 350 | 0.0 | 0.0 | 0.00 | 0.00 | 0.00 | 67 | 1010.0 |
| 20260904075501 | 79 | 350 | 0.0 | 0.0 | 0.00 | 0.00 | 0.00 | 65 | 1010.0 |
| 20260904074735 | 79 | 350 | 0.0 | 0.0 | 0.00 | 0.00 | 0.00 | 64 | 1010.1 |
| 20260904074236 | 79 | 350 | 0.0 | 0.0 | 0.00 | 0.00 | 0.00 | 64 | 1010.0 |
| 20260904074011 | 80 | 10 | 0.0 | 0.0 | 0.00 | 0.00 | 0.00 | 65 | 1010.0 |
| 20260904073235 | 80 | 337 | 0.0 | 0.0 | 0.00 | 0.00 | 0.00 | 64 | 1010.1 |
| 20260904072735 | 80 | 337 | 0.0 | 1.0 | 0.00 | 0.00 | 0.00 | 65 | 1010.1 |
| 20260904072455 | 80 | 347 | 0.0 | 2.0 | 0.00 | 0.00 | 0.00 | 65 | 1010.1 |
| 20260904071731 | 80 | 348 | 0.0 | 2.0 | 0.00 | 0.00 | 0.00 | 64 | 1010.1 |
| 20260904071231 | 80 | 345 | 0.0 | 2.0 | 0.00 | 0.00 | 0.00 | 65 | 1010.0 |
| 20260904070735 | 80 | 312 | 0.0 | 2.0 | 0.00 | 0.00 | 0.00 | 65 | 1010.2 |
| 20260904070234 | 80 | 258 | 0.0 | 1.0 | 0.00 | 0.00 | 0.00 | 65 | 1010.2 |
| 20260904065734 | 80 | 251 | 0.0 | 1.0 | 0.00 | 0.00 | 0.00 | 65 | 1010.2 |
| 20260904065234 | 80 | 251 | 0.0 | 1.0 | 0.00 | 0.00 | 0.00 | 64 | 1010.2 |
| 20260904064957 | 80 | 220 | 0.0 | 0.0 | 0.00 | 0.00 | 0.00 | 65 | 1010.2 |
| 20260904064234 | 80 | 220 | 0.0 | 0.0 | 0.00 | 0.00 | 0.00 | 64 | 1010.3 |
| 20260904063734 | 80 | 220 | 0.0 | 0.0 | 0.00 | 0.00 | 0.00 | 64 | 1010.3 |
| 20260904063233 | 80 | 220 | 0.0 | 1.0 | 0.00 | 0.00 | 0.00 | 63 | 1010.4 |
| 20260904062733 | 80 | 27 | 0.0 | 1.0 | 0.00 | 0.00 | 0.00 | 64 | 1010.3 |
| 20260904062233 | 80 | 147 | 0.0 | 1.0 | 0.00 | 0.00 | 0.00 | 63 | 1010.3 |
| 20260904061734 | 80 | 151 | 0.0 | 0.0 | 0.00 | 0.00 | 0.00 | 64 | 1010.3 |
| 20260904061233 | 79 | 152 | 0.0 | 3.0 | 0.00 | 0.00 | 0.00 | 64 | 1010.3 |
| 20260904060733 | 79 | 336 | 0.0 | 3.0 | 0.00 | 0.00 | 0.00 | 65 | 1010.2 |
| 20260904060233 | 79 | 62 | 0.0 | 0.0 | 0.00 | 0.00 | 0.00 | 66 | 1010.1 |
| 20260904055733 | 78 | 63 | 0.0 | 0.0 | 0.00 | 0.00 | 0.00 | 67 | 1010.2 |
| 20260904055229 | 78 | 62 | 0.0 | 0.0 | 0.00 | 0.00 | 0.00 | 67 | 1010.1 |
| 20260904054729 | 78 | 62 | 0.0 | 0.0 | 0.00 | 0.00 | 0.00 | 68 | 1010.0 |
| 20260904054232 | 78 | 62 | 0.0 | 1.0 | 0.00 | 0.00 | 0.00 | 68 | 1010.1 |
| 20260904053732 | 78 | 37 | 0.0 | 1.0 | 0.00 | 0.00 | 0.00 | 68 | 1010.0 |
| 20260904053232 | 78 | 148 | 0.0 | 0.0 | 0.00 | 0.00 | 0.00 | 68 | 1010.1 |
| 20260904052732 | 78 | 148 | 0.0 | 0.0 | 0.00 | 0.00 | 0.00 | 68 | 1010.0 |
| 20260904052232 | 79 | 178 | 0.0 | 0.0 | 0.00 | 0.00 | 0.00 | 67 | 1010.0 |
| 20260904051728 | 79 | 178 | 0.0 | 0.0 | 0.00 | 0.00 | 0.00 | 67 | 1010.0 |
| 20260904051228 | 79 | 178 | 0.0 | 0.0 | 0.00 | 0.00 | 0.00 | 66 | 1010.0 |
| 20260904050728 | 79 | 178 | 0.0 | 0.0 | 0.00 | 0.00 | 0.00 | 66 | 1010.0 |
| 20260904050231 | 79 | 178 | 0.0 | 0.0 | 0.00 | 0.00 | 0.00 | 65 | 1010.1 |
| 20260904045731 | 80 | 178 | 0.0 | 0.0 | 0.00 | 0.00 | 0.00 | 65 | 1010.1 |
| 20260904045231 | 80 | 178 | 0.0 | 0.0 | 0.00 | 0.00 | 0.00 | 64 | 1010.2 |
| 20260904044731 | 79 | 178 | 0.0 | 0.0 | 0.00 | 0.00 | 0.00 | 65 | 1010.2 |
| 20260904044226 | 79 | 178 | 0.0 | 0.0 | 0.00 | 0.00 | 0.00 | 64 | 1010.2 |
| 20260904043727 | 80 | 176 | 0.0 | 0.0 | 0.00 | 0.00 | 0.00 | 65 | 1010.3 |
| 20260904043227 | 80 | 176 | 0.0 | 0.0 | 0.00 | 0.00 | 0.00 | 64 | 1010.2 |
| 20260904042956 | 80 | 178 | 0.0 | 0.0 | 0.00 | 0.00 | 0.00 | 64 | 1010.2 |
| 20260904042444 | 80 | 176 | 0.0 | 0.0 | 0.00 | 0.00 | 0.00 | 64 | 1010.2 |
| 20260904041949 | 80 | 176 | 0.0 | 0.0 | 0.00 | 0.00 | 0.00 | 63 | 1010.2 |
| 20260904041230 | 81 | 176 | 0.0 | 0.0 | 0.00 | 0.00 | 0.00 | 63 | 1010.2 |
| 20260904040732 | 81 | 176 | 0.0 | 0.0 | 0.00 | 0.00 | 0.00 | 61 | 1010.2 |
| 20260904040455 | 81 | 176 | 0.0 | 0.0 | 0.00 | 0.00 | 0.00 | 60 | 1010.1 |
| 20260904035726 | 82 | 176 | 0.0 | 0.0 | 0.00 | 0.00 | 0.00 | 60 | 1010.1 |
| 20260904035227 | 82 | 178 | 0.0 | 0.0 | 0.00 | 0.00 | 0.00 | 60 | 1010.0 |